TimeMDT,TemperatureF,Dew PointF,Humidity,Sea Level PressureIn,VisibilityMPH,Wind Direction,Wind SpeedMPH,Gust SpeedMPH,PrecipitationIn,Events,Conditions,WindDirDegrees,DateUTC
12:53 AM,42.1,37.9,85,30.17,10.0,ENE,3.5,-,N/A,,Mostly Cloudy,60,2013-10-26 06:53:00
1:53 AM,43.0,37.9,82,30.18,10.0,ENE,3.5,-,N/A,,Overcast,70,2013-10-26 07:53:00
2:53 AM,42.1,37.0,82,30.18,10.0,East,6.9,-,N/A,,Mostly Cloudy,80,2013-10-26 08:53:00
3:53 AM,39.9,37.0,89,30.23,10.0,Calm,Calm,-,N/A,,Overcast,0,2013-10-26 09:53:00
4:53 AM,39.0,36.0,89,30.24,10.0,Calm,Calm,-,N/A,,Overcast,0,2013-10-26 10:53:00
5:53 AM,36.0,33.1,89,30.26,10.0,NE,3.5,-,N/A,,Clear,50,2013-10-26 11:53:00
6:53 AM,36.0,32.0,86,30.28,10.0,East,4.6,-,N/A,,Mostly Cloudy,90,2013-10-26 12:53:00
7:53 AM,34.0,30.9,89,30.30,10.0,NE,5.8,-,N/A,,Clear,50,2013-10-26 13:53:00
8:53 AM,41.0,36.0,82,30.30,10.0,NE,3.5,-,N/A,,Clear,50,2013-10-26 14:53:00
9:53 AM,48.0,37.9,68,30.30,10.0,Calm,Calm,-,N/A,,Clear,0,2013-10-26 15:53:00
10:53 AM,53.1,39.0,59,30.27,10.0,Variable,3.5,-,N/A,,Clear,0,2013-10-26 16:53:00
11:53 AM,57.9,37.9,47,30.25,10.0,SW,9.2,-,N/A,,Clear,220,2013-10-26 17:53:00
12:53 PM,60.1,37.9,44,30.24,10.0,WSW,11.5,-,N/A,,Clear,240,2013-10-26 18:53:00
1:53 PM,61.0,37.9,42,30.22,10.0,WSW,10.4,-,N/A,,Clear,240,2013-10-26 19:53:00
2:53 PM,62.1,37.9,41,30.19,10.0,SW,11.5,-,N/A,,Clear,230,2013-10-26 20:53:00
3:53 PM,63.0,37.0,38,30.19,10.0,SSW,13.8,-,N/A,,Clear,200,2013-10-26 21:53:00
4:53 PM,63.0,33.1,33,30.19,10.0,SSW,9.2,-,N/A,,Clear,200,2013-10-26 22:53:00
5:53 PM,60.1,30.9,33,30.21,10.0,SSW,5.8,-,N/A,,Clear,200,2013-10-26 23:53:00
6:53 PM,52.0,36.0,54,30.25,10.0,NE,4.6,-,N/A,,Clear,50,2013-10-27 00:53:00
7:53 PM,48.0,36.0,63,30.28,10.0,ENE,4.6,-,N/A,,Clear,70,2013-10-27 01:53:00
8:53 PM,41.0,33.1,73,30.28,10.0,East,5.8,-,N/A,,Clear,80,2013-10-27 02:53:00
9:53 PM,41.0,33.1,73,30.25,10.0,East,5.8,-,N/A,,Clear,100,2013-10-27 03:53:00
10:53 PM,37.9,32.0,79,30.25,10.0,ENE,4.6,-,N/A,,Clear,70,2013-10-27 04:53:00
11:53 PM,35.1,30.9,85,30.22,10.0,East,5.8,-,N/A,,Clear,80,2013-10-27 05:53:00